FIN1332 EGLL-EFHK

Flight info

Callsign FIN1332
Flight time 2h 12m
Altitude 41000
Route BPK Q295 MATCH P144 SAMHO DCT LARGA DCT SOPTO DCT RIRIP Y364 LAKUT
Aircraft A359/H-SDE2E3GHIJ3J4J5LM1ORWXY/LB1D1

Departure

Time 2026-05-05 02:38
Airport London Heathrow Airport (EGLL)

Arrival

Time 2026-05-05 04:51
Airport Helsinki Vantaa Airport (EFHK)
Time Latitude Longitude Altitude Speed Heading
2026-05-05 02:08 51.46839 -0.45829 92 ft 0 kts 359°
2026-05-05 02:28 51.46830 -0.45829 96 ft 4 kts 359°
2026-05-05 02:28 51.46802 -0.45828 93 ft 4 kts 359°
2026-05-05 02:28 51.46781 -0.45828 93 ft 4 kts
2026-05-05 02:29 51.46757 -0.45839 92 ft 4 kts 48°
2026-05-05 02:29 51.46748 -0.45872 94 ft 3 kts 90°
2026-05-05 02:29 51.46748 -0.45915 95 ft 3 kts 90°
2026-05-05 02:29 51.46748 -0.45922 95 ft 0 kts 90°
2026-05-05 02:32 51.46748 -0.45921 95 ft 0 kts 90°
2026-05-05 02:32 51.46748 -0.45863 94 ft 9 kts 90°
2026-05-05 02:32 51.46726 -0.45783 97 ft 7 kts 165°
2026-05-05 02:33 51.46674 -0.45744 96 ft 9 kts 130°
2026-05-05 02:33 51.46662 -0.45637 92 ft 11 kts 90°
2026-05-05 02:33 51.46662 -0.45528 92 ft 10 kts 90°
2026-05-05 02:33 51.46662 -0.45405 92 ft 12 kts 90°
2026-05-05 02:34 51.46662 -0.45255 92 ft 15 kts 90°
2026-05-05 02:34 51.46663 -0.45081 93 ft 17 kts 89°
2026-05-05 02:34 51.46664 -0.44883 93 ft 19 kts 89°
2026-05-05 02:34 51.46665 -0.44664 93 ft 21 kts 89°
2026-05-05 02:35 51.46666 -0.44424 96 ft 22 kts 90°
2026-05-05 02:35 51.46667 -0.44164 92 ft 24 kts 90°
2026-05-05 02:35 51.46668 -0.43887 94 ft 25 kts 90°
2026-05-05 02:35 51.46668 -0.43706 92 ft 13 kts 90°
2026-05-05 02:36 51.46623 -0.43610 95 ft 12 kts 162°
2026-05-05 02:36 51.46538 -0.43591 97 ft 11 kts 175°
2026-05-05 02:36 51.46497 -0.43642 94 ft 9 kts 256°
2026-05-05 02:36 51.46495 -0.43692 92 ft 0 kts 268°
2026-05-05 02:37 51.46494 -0.43860 92 ft 41 kts 270°
2026-05-05 02:38 51.46492 -0.44713 99 ft 111 kts 270°
2026-05-05 02:38 51.46492 -0.46290 98 ft 170 kts 270°
2026-05-05 02:38 51.46497 -0.48280 669 ft 178 kts 272°
2026-05-05 02:38 51.46504 -0.50250 1522 ft 180 kts 272°
2026-05-05 02:39 51.46644 -0.52337 1970 ft 198 kts 290°
2026-05-05 02:39 51.47342 -0.54310 2519 ft 210 kts 307°
2026-05-05 02:39 51.48203 -0.56321 3034 ft 228 kts 306°
2026-05-05 02:39 51.49037 -0.58592 3628 ft 244 kts 299°
2026-05-05 02:40 51.49888 -0.61026 4232 ft 255 kts 308°
2026-05-05 02:40 51.51251 -0.62881 4924 ft 261 kts 337°
2026-05-05 02:40 51.52981 -0.63482 6072 ft 250 kts 350°
2026-05-05 02:40 51.54679 -0.63840 7141 ft 243 kts 352°
2026-05-05 02:41 51.56345 -0.64077 8148 ft 238 kts 358°
2026-05-05 02:41 51.57959 -0.63368 8820 ft 254 kts 30°
2026-05-05 02:41 51.59194 -0.61209 9250 ft 276 kts 64°
2026-05-05 02:41 51.59803 -0.58198 9825 ft 290 kts 70°
2026-05-05 02:42 51.60788 -0.55307 10440 ft 303 kts 56°
2026-05-05 02:42 51.62034 -0.52417 10805 ft 326 kts 56°
2026-05-05 02:42 51.63185 -0.49145 11204 ft 345 kts 63°
2026-05-05 02:42 51.64270 -0.45648 11938 ft 352 kts 64°
2026-05-05 02:43 51.64988 -0.43302 12502 ft 354 kts 64°
2026-05-05 02:43 51.66086 -0.39719 13399 ft 358 kts 64°
2026-05-05 02:43 51.67195 -0.36101 14222 ft 361 kts 64°
2026-05-05 02:43 51.68312 -0.32464 14973 ft 364 kts 64°
2026-05-05 02:44 51.69812 -0.27574 15940 ft 370 kts 64°
2026-05-05 02:44 51.70584 -0.25058 16414 ft 372 kts 65°
2026-05-05 02:44 51.71735 -0.21297 17147 ft 376 kts 65°
2026-05-05 02:44 51.72898 -0.17495 17900 ft 380 kts 65°
2026-05-05 02:45 51.74417 -0.12371 18829 ft 385 kts 68°
2026-05-05 02:45 51.74993 -0.09597 19265 ft 386 kts 76°
2026-05-05 02:45 51.75571 -0.05339 19926 ft 391 kts 81°
2026-05-05 02:45 51.75986 -0.00982 20574 ft 395 kts 83°
2026-05-05 02:46 51.76318 0.03392 21206 ft 399 kts 84°
2026-05-05 02:46 51.76633 0.07861 21857 ft 404 kts 84°
2026-05-05 02:46 51.76955 0.12389 22506 ft 408 kts 84°
2026-05-05 02:46 51.77295 0.16964 23141 ft 413 kts 84°
2026-05-05 02:47 51.77776 0.21559 23739 ft 418 kts 77°
2026-05-05 02:47 51.78657 0.26058 24249 ft 424 kts 68°
2026-05-05 02:47 51.80010 0.30313 24739 ft 429 kts 58°
2026-05-05 02:47 51.81847 0.34143 25214 ft 435 kts 47°
2026-05-05 02:48 51.84151 0.37394 25590 ft 442 kts 34°
2026-05-05 02:48 51.86741 0.40117 26108 ft 446 kts 34°
2026-05-05 02:48 51.89194 0.43207 26657 ft 448 kts 41°
2026-05-05 02:48 51.91546 0.46556 27183 ft 452 kts 42°
2026-05-05 02:49 51.93845 0.49976 27694 ft 456 kts 43°
2026-05-05 02:49 51.96157 0.53532 28161 ft 460 kts 44°
2026-05-05 02:49 51.98473 0.57171 28632 ft 464 kts 44°
2026-05-05 02:49 52.00799 0.60856 29089 ft 468 kts 44°
2026-05-05 02:50 52.03291 0.64273 29564 ft 472 kts 37°
2026-05-05 02:50 52.05936 0.67481 30096 ft 473 kts 36°
2026-05-05 02:50 52.08591 0.70588 30759 ft 470 kts 36°
2026-05-05 02:50 52.11266 0.73663 31190 ft 472 kts 35°
2026-05-05 02:51 52.13973 0.76749 31550 ft 475 kts 35°
2026-05-05 02:51 52.16685 0.79838 31919 ft 478 kts 35°
2026-05-05 02:51 52.19421 0.82962 32294 ft 480 kts 35°
2026-05-05 02:51 52.22163 0.86105 32659 ft 482 kts 35°
2026-05-05 02:52 52.24875 0.89222 32996 ft 484 kts 36°
2026-05-05 02:52 52.27639 0.92410 33338 ft 487 kts 36°
2026-05-05 02:52 52.30397 0.95597 33766 ft 486 kts 35°
2026-05-05 02:52 52.33151 0.98781 34182 ft 485 kts 35°
2026-05-05 02:53 52.35909 1.01968 34421 ft 487 kts 35°
2026-05-05 02:53 52.38686 1.05186 34596 ft 490 kts 35°
2026-05-05 02:53 52.41468 1.08425 34922 ft 490 kts 36°
2026-05-05 02:53 52.44258 1.11684 35244 ft 490 kts 36°
2026-05-05 02:54 52.47037 1.14933 35540 ft 491 kts 36°
2026-05-05 02:54 52.49824 1.18195 35814 ft 491 kts 36°
2026-05-05 02:54 52.52602 1.21451 36087 ft 492 kts 35°
2026-05-05 02:54 52.55384 1.24712 36413 ft 491 kts 35°
2026-05-05 02:55 52.58165 1.27977 36686 ft 491 kts 35°
2026-05-05 02:55 52.60917 1.31214 36936 ft 492 kts 35°
2026-05-05 02:55 52.63704 1.34498 37167 ft 493 kts 35°
2026-05-05 02:55 52.66494 1.37791 37417 ft 494 kts 35°
2026-05-05 02:56 52.69282 1.41087 37660 ft 494 kts 35°
2026-05-05 02:56 52.72082 1.44401 37904 ft 495 kts 35°
2026-05-05 02:56 52.74878 1.47716 38138 ft 495 kts 35°
2026-05-05 02:56 52.77680 1.51043 38423 ft 494 kts 35°
2026-05-05 02:57 52.80465 1.54356 38636 ft 495 kts 35°
2026-05-05 02:57 52.83272 1.57700 38780 ft 497 kts 35°
2026-05-05 02:57 52.86079 1.61051 38931 ft 497 kts 35°
2026-05-05 02:57 52.88884 1.64404 39119 ft 497 kts 35°
2026-05-05 02:58 52.91694 1.67768 39293 ft 497 kts 35°
2026-05-05 02:58 52.94463 1.71090 39459 ft 497 kts 35°
2026-05-05 02:58 52.97264 1.74455 39631 ft 497 kts 35°
2026-05-05 02:58 53.00066 1.77825 39794 ft 497 kts 35°
2026-05-05 02:59 53.02865 1.81199 39971 ft 497 kts 35°
2026-05-05 02:59 53.05661 1.84574 40148 ft 497 kts 35°
2026-05-05 02:59 53.08457 1.87950 40283 ft 497 kts 35°
2026-05-05 02:59 53.11260 1.91341 40422 ft 497 kts 35°
2026-05-05 03:00 53.14055 1.94733 40555 ft 497 kts 35°
2026-05-05 03:00 53.16851 1.98133 40677 ft 498 kts 35°
2026-05-05 03:00 53.19648 2.01539 40808 ft 498 kts 35°
2026-05-05 03:00 53.22445 2.04950 40922 ft 498 kts 35°
2026-05-05 03:01 53.25245 2.08370 41012 ft 500 kts 35°
2026-05-05 03:01 53.30944 2.15077 41017 ft 500 kts 33°
2026-05-05 03:02 53.36693 2.21520 41017 ft 500 kts 32°
2026-05-05 03:02 53.42470 2.28022 41017 ft 500 kts 33°
2026-05-05 03:03 53.48233 2.34592 41018 ft 500 kts 33°
2026-05-05 03:03 53.53883 2.41428 41014 ft 501 kts 36°
2026-05-05 03:04 53.59420 2.48540 41014 ft 501 kts 36°
2026-05-05 03:04 53.64943 2.55628 41011 ft 501 kts 36°
2026-05-05 03:05 53.70503 2.62709 41015 ft 501 kts 36°
2026-05-05 03:05 53.76075 2.69796 41012 ft 502 kts 36°
2026-05-05 03:06 53.81657 2.76915 41009 ft 502 kts 36°
2026-05-05 03:06 53.87220 2.84039 41009 ft 502 kts 36°
2026-05-05 03:07 53.92786 2.91194 41012 ft 502 kts 36°
2026-05-05 03:07 53.98347 2.98366 41017 ft 502 kts 36°
2026-05-05 03:08 54.03883 3.05531 41018 ft 503 kts 36°
2026-05-05 03:08 54.09444 3.12753 41018 ft 503 kts 36°
2026-05-05 03:09 54.15009 3.20005 41017 ft 503 kts 36°
2026-05-05 03:09 54.20568 3.27274 41028 ft 503 kts 36°
2026-05-05 03:10 54.26124 3.34565 41018 ft 503 kts 36°
2026-05-05 03:10 54.31683 3.41886 41018 ft 503 kts 36°
2026-05-05 03:11 54.37199 3.49175 41018 ft 504 kts 36°
2026-05-05 03:11 54.42743 3.56527 41015 ft 504 kts 36°
2026-05-05 03:12 54.48281 3.63897 41015 ft 503 kts 36°
2026-05-05 03:12 54.53817 3.71291 41016 ft 503 kts 36°
2026-05-05 03:13 54.59348 3.78703 41015 ft 503 kts 36°
2026-05-05 03:13 54.64883 3.86145 41015 ft 504 kts 36°
2026-05-05 03:14 54.70412 3.93608 41003 ft 504 kts 36°
2026-05-05 03:14 54.75936 4.01090 41022 ft 504 kts 36°
2026-05-05 03:15 54.81424 4.08551 41019 ft 504 kts 36°
2026-05-05 03:15 54.86806 4.16390 41018 ft 506 kts 44°
2026-05-05 03:16 54.91678 4.25228 40996 ft 507 kts 45°
2026-05-05 03:16 54.96444 4.34248 41007 ft 507 kts 46°
2026-05-05 03:17 55.01202 4.43347 41001 ft 508 kts 46°
2026-05-05 03:17 55.05966 4.52465 41000 ft 508 kts 46°
2026-05-05 03:18 55.10725 4.61587 41000 ft 508 kts 46°
2026-05-05 03:18 55.15480 4.70731 41003 ft 508 kts 46°
2026-05-05 03:19 55.22583 4.84454 41002 ft 509 kts 46°
2026-05-05 03:19 55.27335 4.93681 41011 ft 509 kts 46°
2026-05-05 03:20 55.31864 5.03234 41010 ft 510 kts 51°
2026-05-05 03:20 55.36083 5.13291 41006 ft 511 kts 52°
2026-05-05 03:21 55.40235 5.23431 40999 ft 511 kts 53°
2026-05-05 03:21 55.44352 5.33547 41003 ft 512 kts 53°
2026-05-05 03:22 55.48503 5.43766 41002 ft 512 kts 53°
2026-05-05 03:22 55.52646 5.53998 41002 ft 512 kts 53°
2026-05-05 03:23 55.56783 5.64251 40996 ft 513 kts 53°
2026-05-05 03:23 55.60912 5.74527 40996 ft 513 kts 53°
2026-05-05 03:24 55.65032 5.84827 41019 ft 513 kts 53°
2026-05-05 03:24 55.69152 5.95168 40997 ft 515 kts 53°
2026-05-05 03:25 55.73273 6.05558 40995 ft 515 kts 53°
2026-05-05 03:25 55.77393 6.15988 40990 ft 515 kts 53°
2026-05-05 03:26 55.81471 6.26356 40988 ft 515 kts 53°
2026-05-05 03:26 55.85569 6.36820 40991 ft 515 kts 53°
2026-05-05 03:27 55.89659 6.47307 40994 ft 515 kts 53°
2026-05-05 03:27 55.93744 6.57827 40986 ft 515 kts 54°
2026-05-05 03:28 55.97816 6.68360 40982 ft 515 kts 54°
2026-05-05 03:28 56.01880 6.78915 40983 ft 516 kts 54°
2026-05-05 03:29 56.05938 6.89502 40984 ft 516 kts 54°
2026-05-05 03:29 56.09985 7.00107 40984 ft 516 kts 54°
2026-05-05 03:30 56.14026 7.10741 40986 ft 517 kts 54°
2026-05-05 03:30 56.18075 7.21441 40987 ft 518 kts 54°
2026-05-05 03:31 56.22112 7.32160 40982 ft 518 kts 54°
2026-05-05 03:31 56.26112 7.42826 40985 ft 518 kts 54°
2026-05-05 03:32 56.30136 7.53602 40980 ft 518 kts 54°
2026-05-05 03:32 56.33474 7.62579 40977 ft 518 kts 54°
2026-05-05 03:33 56.37478 7.73391 40978 ft 519 kts 54°
2026-05-05 03:33 56.41489 7.84269 40977 ft 519 kts 54°
2026-05-05 03:34 56.45483 7.95152 40971 ft 520 kts 55°
2026-05-05 03:34 56.49469 8.06059 40971 ft 520 kts 55°
2026-05-05 03:35 56.53423 8.16928 40964 ft 520 kts 55°
2026-05-05 03:35 56.57395 8.27898 40980 ft 520 kts 55°
2026-05-05 03:36 56.61359 8.38895 40965 ft 521 kts 55°
2026-05-05 03:36 56.65329 8.49957 40965 ft 522 kts 55°
2026-05-05 03:37 56.69282 8.61022 40962 ft 522 kts 55°
2026-05-05 03:37 56.73202 8.72046 40958 ft 522 kts 55°
2026-05-05 03:38 56.77134 8.83157 40952 ft 522 kts 56°
2026-05-05 03:38 56.81063 8.94309 40958 ft 522 kts 56°
2026-05-05 03:39 56.84988 9.05500 40949 ft 523 kts 56°
2026-05-05 03:39 56.88880 9.16648 40950 ft 523 kts 56°
2026-05-05 03:40 56.92788 9.27897 40946 ft 523 kts 56°
2026-05-05 03:40 56.96683 9.39159 40943 ft 523 kts 56°
2026-05-05 03:41 57.00572 9.50457 40939 ft 523 kts 56°
2026-05-05 03:41 57.04425 9.61703 40937 ft 524 kts 56°
2026-05-05 03:42 57.08303 9.73076 40939 ft 525 kts 56°
2026-05-05 03:42 57.12169 9.84468 40938 ft 525 kts 56°
2026-05-05 03:43 57.16029 9.95897 40942 ft 525 kts 56°
2026-05-05 03:43 57.19870 10.07326 40935 ft 525 kts 56°
2026-05-05 03:44 57.23710 10.18805 40931 ft 525 kts 57°
2026-05-05 03:44 57.27543 10.30316 40925 ft 526 kts 57°
2026-05-05 03:45 57.31341 10.41779 40919 ft 526 kts 57°
2026-05-05 03:45 57.35155 10.53348 40919 ft 526 kts 57°
2026-05-05 03:46 57.38964 10.64955 40911 ft 526 kts 57°
2026-05-05 03:46 57.42758 10.76576 40911 ft 527 kts 57°
2026-05-05 03:47 57.46546 10.88234 40919 ft 527 kts 57°
2026-05-05 03:47 57.50319 10.99901 40903 ft 528 kts 57°
2026-05-05 03:48 57.54096 11.11639 40906 ft 528 kts 57°
2026-05-05 03:48 57.57832 11.23310 40894 ft 528 kts 57°
2026-05-05 03:49 57.61592 11.35113 40898 ft 528 kts 58°
2026-05-05 03:49 57.65333 11.46916 40892 ft 528 kts 58°
2026-05-05 03:50 57.69064 11.58744 40898 ft 529 kts 58°
2026-05-05 03:50 57.72774 11.70564 40884 ft 531 kts 58°
2026-05-05 03:51 57.76501 11.82501 40885 ft 531 kts 58°
2026-05-05 03:51 57.80218 11.94468 40884 ft 531 kts 58°
2026-05-05 03:52 57.83929 12.06474 40885 ft 531 kts 58°
2026-05-05 03:52 57.87628 12.18505 40884 ft 531 kts 58°
2026-05-05 03:53 57.91318 12.30564 40872 ft 532 kts 58°
2026-05-05 03:53 57.94984 12.42611 40861 ft 534 kts 58°
2026-05-05 03:54 57.98666 12.54770 40867 ft 534 kts 59°
2026-05-05 03:54 58.02340 12.66971 40883 ft 534 kts 59°
2026-05-05 03:55 58.06003 12.79196 40871 ft 534 kts 59°
2026-05-05 03:55 58.09650 12.91432 40865 ft 534 kts 59°
2026-05-05 03:56 58.13286 13.03694 40854 ft 534 kts 59°
2026-05-05 03:56 58.16887 13.15906 40858 ft 534 kts 59°
2026-05-05 03:57 58.20501 13.28225 40855 ft 534 kts 59°
2026-05-05 03:57 58.24100 13.40555 40855 ft 534 kts 59°
2026-05-05 03:58 58.27686 13.52910 40852 ft 534 kts 59°
2026-05-05 03:58 58.31261 13.65291 40853 ft 534 kts 59°
2026-05-05 03:59 58.34808 13.77644 40826 ft 536 kts 60°
2026-05-05 03:59 58.38395 13.90202 40839 ft 536 kts 60°
2026-05-05 04:00 58.41918 14.02606 40833 ft 536 kts 60°
2026-05-05 04:00 58.45457 14.15130 40824 ft 536 kts 60°
2026-05-05 04:01 58.48983 14.27681 40827 ft 536 kts 60°
2026-05-05 04:01 58.52497 14.40254 40841 ft 536 kts 60°
2026-05-05 04:02 58.56003 14.52868 40806 ft 537 kts 60°
2026-05-05 04:02 58.59503 14.65532 40827 ft 537 kts 60°
2026-05-05 04:03 58.62982 14.78193 40823 ft 536 kts 60°
2026-05-05 04:03 58.66449 14.90876 40817 ft 536 kts 61°
2026-05-05 04:04 58.69883 15.03513 40809 ft 536 kts 61°
2026-05-05 04:04 58.73326 15.16249 40810 ft 537 kts 61°
2026-05-05 04:05 58.76767 15.29053 40801 ft 538 kts 61°
2026-05-05 04:05 58.80196 15.41883 40790 ft 538 kts 61°
2026-05-05 04:06 58.83613 15.54743 40795 ft 538 kts 61°
2026-05-05 04:06 58.87017 15.67631 40787 ft 538 kts 62°
2026-05-05 04:07 58.90388 15.80462 40782 ft 538 kts 62°
2026-05-05 04:07 58.93768 15.93401 40775 ft 539 kts 62°
2026-05-05 04:08 58.97140 16.06385 40768 ft 539 kts 62°
2026-05-05 04:08 59.00496 16.19383 40768 ft 539 kts 62°
2026-05-05 04:09 59.03824 16.32350 40759 ft 539 kts 62°
2026-05-05 04:09 59.07154 16.45403 40757 ft 539 kts 62°
2026-05-05 04:10 59.10476 16.58497 40752 ft 539 kts 62°
2026-05-05 04:10 59.13777 16.71589 40747 ft 540 kts 62°
2026-05-05 04:11 59.17076 16.84746 40746 ft 540 kts 63°
2026-05-05 04:11 59.20358 16.97915 40734 ft 540 kts 63°
2026-05-05 04:12 59.23623 17.11098 40734 ft 539 kts 63°
2026-05-05 04:12 59.26856 17.24226 40729 ft 539 kts 63°
2026-05-05 04:13 59.30093 17.37456 40763 ft 539 kts 63°
2026-05-05 04:13 59.33318 17.50711 40729 ft 539 kts 63°
2026-05-05 04:14 59.36534 17.64009 40717 ft 539 kts 63°
2026-05-05 04:14 59.39733 17.77322 40711 ft 540 kts 64°
2026-05-05 04:15 59.42920 17.90661 40746 ft 540 kts 64°
2026-05-05 04:15 59.46093 18.04031 40743 ft 540 kts 64°
2026-05-05 04:16 59.49255 18.17431 40763 ft 540 kts 64°
2026-05-05 04:16 59.52398 18.30839 40718 ft 539 kts 64°
2026-05-05 04:17 59.55504 18.44168 40716 ft 539 kts 64°
2026-05-05 04:17 59.58617 18.57611 40707 ft 539 kts 64°
2026-05-05 04:18 59.61719 18.71092 40722 ft 539 kts 65°
2026-05-05 04:18 59.64809 18.84604 40722 ft 539 kts 65°
2026-05-05 04:19 59.67885 18.98144 40737 ft 540 kts 65°
2026-05-05 04:19 59.70947 19.11710 40718 ft 539 kts 65°
2026-05-05 04:20 59.73990 19.25274 40711 ft 538 kts 65°
2026-05-05 04:20 59.77004 19.38797 40711 ft 538 kts 65°
2026-05-05 04:21 59.80018 19.52407 40711 ft 538 kts 65°
2026-05-05 04:21 59.83018 19.66042 40703 ft 538 kts 65°
2026-05-05 04:22 59.86004 19.79704 40702 ft 538 kts 65°
2026-05-05 04:22 59.88977 19.93392 40694 ft 539 kts 66°
2026-05-05 04:23 59.91936 20.07107 40698 ft 539 kts 66°
2026-05-05 04:23 59.94884 20.20862 40687 ft 539 kts 66°
2026-05-05 04:24 59.97814 20.34624 40700 ft 538 kts 66°
2026-05-05 04:25 60.02164 20.55229 40667 ft 539 kts 66°
2026-05-05 04:25 60.03612 20.62133 40460 ft 538 kts 66°
2026-05-05 04:25 60.05055 20.69037 40004 ft 536 kts 66°
2026-05-05 04:25 60.06490 20.75923 39258 ft 539 kts 67°
2026-05-05 04:26 60.07447 20.80527 38761 ft 541 kts 67°
2026-05-05 04:26 60.08892 20.87504 38001 ft 543 kts 67°
2026-05-05 04:26 60.10339 20.94514 37257 ft 543 kts 67°
2026-05-05 04:26 60.11779 21.01495 36565 ft 541 kts 67°
2026-05-05 04:27 60.13210 21.08476 35883 ft 541 kts 66°
2026-05-05 04:27 60.14636 21.15461 35163 ft 541 kts 66°
2026-05-05 04:27 60.16060 21.22458 34427 ft 542 kts 66°
2026-05-05 04:27 60.17491 21.29516 33607 ft 546 kts 66°
2026-05-05 04:28 60.18931 21.36609 32668 ft 549 kts 66°
2026-05-05 04:28 60.20194 21.43866 32314 ft 555 kts 76°
2026-05-05 04:28 60.21130 21.51404 31901 ft 553 kts 76°
2026-05-05 04:28 60.21981 21.58931 31342 ft 548 kts 77°
2026-05-05 04:29 60.22775 21.66412 30753 ft 545 kts 78°
2026-05-05 04:29 60.23540 21.73862 30152 ft 542 kts 78°
2026-05-05 04:29 60.24283 21.81198 29531 ft 540 kts 78°
2026-05-05 04:29 60.25028 21.88579 28885 ft 536 kts 78°
2026-05-05 04:30 60.25767 21.95884 28274 ft 531 kts 78°
2026-05-05 04:30 60.26499 22.03128 27738 ft 525 kts 78°
2026-05-05 04:30 60.27223 22.10311 27171 ft 521 kts 78°
2026-05-05 04:30 60.27940 22.17438 26604 ft 517 kts 78°
2026-05-05 04:31 60.28650 22.24534 26037 ft 514 kts 78°
2026-05-05 04:31 60.29350 22.31570 25462 ft 510 kts 79°
2026-05-05 04:31 60.30041 22.38562 24900 ft 507 kts 79°
2026-05-05 04:31 60.30725 22.45515 24340 ft 504 kts 79°
2026-05-05 04:32 60.31401 22.52432 23826 ft 501 kts 79°
2026-05-05 04:32 60.32071 22.59327 23214 ft 500 kts 79°
2026-05-05 04:32 60.32735 22.66199 22556 ft 497 kts 79°
2026-05-05 04:32 60.33390 22.73012 21984 ft 492 kts 79°
2026-05-05 04:33 60.34030 22.79751 21441 ft 486 kts 79°
2026-05-05 04:33 60.34661 22.86424 20882 ft 482 kts 79°
2026-05-05 04:33 60.35284 22.93056 20317 ft 478 kts 79°
2026-05-05 04:33 60.35899 22.99622 19752 ft 474 kts 79°
2026-05-05 04:34 60.36507 23.06142 19182 ft 471 kts 79°
2026-05-05 04:34 60.37100 23.12544 18626 ft 467 kts 79°
2026-05-05 04:34 60.37693 23.18985 18059 ft 465 kts 80°
2026-05-05 04:34 60.38280 23.25400 17451 ft 461 kts 80°
2026-05-05 04:35 60.38857 23.31733 16893 ft 457 kts 80°
2026-05-05 04:35 60.39427 23.38020 16327 ft 452 kts 80°
2026-05-05 04:35 60.39990 23.44261 15781 ft 448 kts 80°
2026-05-05 04:35 60.40543 23.50431 15230 ft 444 kts 80°
2026-05-05 04:36 60.41088 23.56549 14689 ft 439 kts 80°
2026-05-05 04:36 60.41625 23.62605 14147 ft 435 kts 80°
2026-05-05 04:36 60.42155 23.68612 13630 ft 432 kts 80°
2026-05-05 04:36 60.42678 23.74586 13032 ft 429 kts 80°
2026-05-05 04:37 60.43196 23.80514 12562 ft 422 kts 81°
2026-05-05 04:37 60.43688 23.86182 12419 ft 407 kts 81°
2026-05-05 04:37 60.44137 23.91734 12277 ft 392 kts 84°
2026-05-05 04:37 60.44441 23.97066 12106 ft 368 kts 85°
2026-05-05 04:38 60.44704 24.02085 11971 ft 352 kts 85°
2026-05-05 04:38 60.44968 24.06989 11609 ft 348 kts 85°
2026-05-05 04:38 60.45233 24.11835 11264 ft 344 kts 85°
2026-05-05 04:38 60.45496 24.16618 10946 ft 339 kts 85°
2026-05-05 04:39 60.45757 24.21337 10617 ft 335 kts 85°
2026-05-05 04:39 60.46016 24.26005 10290 ft 330 kts 85°
2026-05-05 04:39 60.46218 24.30610 9986 ft 326 kts 88°
2026-05-05 04:39 60.46384 24.35150 9666 ft 321 kts 87°
2026-05-05 04:40 60.46548 24.39671 9362 ft 324 kts 87°
2026-05-05 04:40 60.46719 24.44259 9062 ft 327 kts 87°
2026-05-05 04:40 60.46892 24.48844 8709 ft 325 kts 87°
2026-05-05 04:40 60.47066 24.53401 8391 ft 322 kts 87°
2026-05-05 04:41 60.47237 24.57910 8069 ft 320 kts 87°
2026-05-05 04:41 60.47245 24.62367 7769 ft 315 kts 99°
2026-05-05 04:41 60.46927 24.66684 7468 ft 311 kts 104°
2026-05-05 04:41 60.46541 24.70976 7161 ft 308 kts 104°
2026-05-05 04:42 60.46152 24.75229 6861 ft 306 kts 104°
2026-05-05 04:42 60.45768 24.79448 6545 ft 303 kts 104°
2026-05-05 04:42 60.45389 24.83636 6248 ft 301 kts 104°
2026-05-05 04:42 60.45014 24.87792 5936 ft 299 kts 104°
2026-05-05 04:43 60.44785 24.91971 5618 ft 300 kts 91°
2026-05-05 04:43 60.45367 24.96010 5314 ft 302 kts 58°
2026-05-05 04:43 60.46658 24.99326 5008 ft 299 kts 45°
2026-05-05 04:43 60.48052 25.02350 4873 ft 288 kts 45°
2026-05-05 04:44 60.49391 25.05241 4739 ft 276 kts 45°
2026-05-05 04:44 60.50684 25.08051 4554 ft 269 kts 45°
2026-05-05 04:44 60.51765 25.11032 4385 ft 267 kts 65°
2026-05-05 04:44 60.52042 25.14652 4239 ft 256 kts 103°
2026-05-05 04:45 60.51345 25.17784 4116 ft 241 kts 136°
2026-05-05 04:45 60.50181 25.20182 4028 ft 233 kts 145°
2026-05-05 04:45 60.49004 25.22316 3955 ft 221 kts 146°
2026-05-05 04:45 60.47848 25.24291 3895 ft 213 kts 152°
2026-05-05 04:46 60.46525 25.25320 3794 ft 198 kts 183°
2026-05-05 04:46 60.45251 25.24688 3656 ft 185 kts 215°
2026-05-05 04:46 60.44338 25.22927 3419 ft 181 kts 232°
2026-05-05 04:46 60.43518 25.20984 3185 ft 182 kts 230°
2026-05-05 04:47 60.42664 25.19078 2976 ft 184 kts 230°
2026-05-05 04:47 60.41790 25.17187 2755 ft 182 kts 230°
2026-05-05 04:47 60.40956 25.15364 2515 ft 175 kts 230°
2026-05-05 04:47 60.40172 25.13617 2272 ft 161 kts 231°
2026-05-05 04:48 60.39446 25.12008 2057 ft 148 kts 231°
2026-05-05 04:48 60.38781 25.10540 1858 ft 135 kts 231°
2026-05-05 04:48 60.38180 25.09208 1680 ft 122 kts 231°
2026-05-05 04:48 60.37623 25.07973 1531 ft 117 kts 231°
2026-05-05 04:49 60.37075 25.06760 1376 ft 117 kts 231°
2026-05-05 04:49 60.36529 25.05550 1207 ft 116 kts 231°
2026-05-05 04:49 60.35985 25.04347 1043 ft 116 kts 229°
2026-05-05 04:49 60.35431 25.03124 883 ft 119 kts 228°
2026-05-05 04:50 60.34866 25.01882 727 ft 121 kts 227°
2026-05-05 04:50 60.34304 25.00633 576 ft 122 kts 226°
2026-05-05 04:50 60.33746 24.99353 392 ft 120 kts 224°
2026-05-05 04:50 60.33177 24.98140 247 ft 119 kts 222°
2026-05-05 04:51 60.32605 24.96953 181 ft 109 kts 226°
2026-05-05 04:51 60.32259 24.96136 199 ft 35 kts 227°
2026-05-05 04:51 60.32129 24.95845 183 ft 24 kts 226°
2026-05-05 04:51 60.32032 24.95720 179 ft 12 kts 205°
2026-05-05 04:52 60.31955 24.95653 178 ft 13 kts 200°
2026-05-05 04:52 60.31877 24.95606 177 ft 8 kts 195°
2026-05-05 04:52 60.31822 24.95638 176 ft 8 kts 136°
2026-05-05 04:52 60.31831 24.95739 176 ft 10 kts 58°
2026-05-05 04:53 60.31892 24.95875 176 ft 15 kts 46°
2026-05-05 04:53 60.31970 24.96041 176 ft 18 kts 47°
2026-05-05 04:53 60.32067 24.96253 174 ft 22 kts 47°
2026-05-05 04:53 60.32175 24.96502 174 ft 24 kts 49°
2026-05-05 04:54 60.32249 24.96669 173 ft 11 kts 59°
2026-05-05 04:54 60.32212 24.96776 172 ft 11 kts 149°
2026-05-05 04:54 60.32136 24.96865 173 ft 14 kts 150°